User: anonymous   Login
Location: Unspecified
(0.0000°N, 0.0000°E)
Time: 19:02:09
(UTC+00:00)
Language:

TBA - TO BE ASSIGNED - Orbit

View from above orbital plane
View from above orbital plane
View from above satellite
View from above satellite

Ground track
Ground track

The orbit is defined by the following mean orbital elements,

1 67979U          26145.44258394 +.00000000 +00000-0 +85023-3 0 00009
2 67979  97.2855 155.4940 0001201  86.4660 273.6720 15.33459664    01
Epoch (UTC): 25 May 2026 10:37:19
Eccentricity: 0.0001201
inclination: 97.2855°
perigee height: 465 km
apogee height: 466 km
right ascension of ascending node: 155.4940°
argument of perigee: 86.4660°
revolutions per day: 15.33459664
mean anomaly at epoch: 273.6720°

The dashed part of the orbit path shows where the satellite is in the earth's shadow,  

DLR